Radioactive Concentration measured by Seawater Radiation Monitor near Fukushima Daiichi Nuclear Power Station
Date,Time,Cs137(Bq/L),Cs134(Bq/L),Total β(Bq/L)
2018/02/17,00:00,0.72,0.040,ND
2018/02/17,00:10,0.70,0.040,ND
2018/02/17,00:20,0.70,0.031,ND
2018/02/17,00:30,0.71,0.031,ND
2018/02/17,00:40,0.76,ND,ND
2018/02/17,00:50,0.73,ND,8.8
2018/02/17,01:00,0.73,ND,ND
2018/02/17,01:10,0.73,ND,ND
2018/02/17,01:20,0.73,ND,9.5
2018/02/17,01:30,0.73,ND,9.5
2018/02/17,01:40,0.73,ND,11
2018/02/17,01:50,0.72,ND,11
2018/02/17,02:00,0.73,ND,12
2018/02/17,02:10,0.73,ND,13
2018/02/17,02:20,0.73,ND,13
2018/02/17,02:30,0.73,ND,11
2018/02/17,02:40,0.68,0.027,10
2018/02/17,02:50,0.72,ND,9.3
2018/02/17,03:00,0.69,0.025,ND
2018/02/17,03:10,0.68,0.033,ND
2018/02/17,03:20,0.66,0.038,ND
2018/02/17,03:30,0.67,0.038,ND
2018/02/17,03:40,0.70,0.028,ND
2018/02/17,03:50,0.69,0.036,ND
2018/02/17,04:00,0.67,0.041,10
2018/02/17,04:10,0.66,0.042,11
2018/02/17,04:20,0.67,0.037,11
2018/02/17,04:30,0.67,0.032,13
2018/02/17,04:40,0.68,0.038,10
2018/02/17,04:50,0.70,0.034,12
2018/02/17,05:00,0.74,ND,13
2018/02/17,05:10,0.69,0.027,13
2018/02/17,05:20,0.69,0.030,13
2018/02/17,05:30,0.67,0.036,12
2018/02/17,05:40,0.66,0.034,12
2018/02/17,05:50,0.65,0.038,11
2018/02/17,06:00,0.67,0.031,10
2018/02/17,06:10,0.69,0.032,10
2018/02/17,06:20,0.70,0.030,10
2018/02/17,06:30,0.74,ND,9.6
2018/02/17,06:40,0.77,ND,8.8
2018/02/17,06:50,0.76,ND,9.0
2018/02/17,07:00,0.74,0.026,ND
2018/02/17,07:10,0.71,0.039,9.5
2018/02/17,07:20,0.73,0.042,9.3
2018/02/17,07:30,0.74,0.047,11
2018/02/17,07:40,0.73,0.048,16
2018/02/17,07:50,0.74,0.055,18
2018/02/17,08:00,0.72,0.057,21
2018/02/17,08:10,0.74,0.043,22
2018/02/17,08:20,0.74,0.037,22
2018/02/17,08:30,0.75,ND,23
2018/02/17,08:40,0.76,ND,19
2018/02/17,08:50,0.76,ND,18
2018/02/17,09:00,0.77,ND,17
2018/02/17,09:10,0.79,ND,15
2018/02/17,09:20,0.79,ND,17
2018/02/17,09:30,0.75,0.027,14
2018/02/17,09:40,0.74,0.029,13
2018/02/17,09:50,0.73,0.050,11
2018/02/17,10:00,0.71,0.049,11
2018/02/17,10:10,0.72,0.049,11
2018/02/17,10:20,0.70,0.043,10
2018/02/17,10:30,0.72,0.045,12
2018/02/17,10:40,0.74,0.038,13
2018/02/17,10:50,0.72,0.039,15
2018/02/17,11:00,0.75,0.037,14
2018/02/17,11:10,0.74,0.037,13
2018/02/17,11:20,0.75,0.042,12
2018/02/17,11:30,0.74,0.043,12
2018/02/17,11:40,0.75,0.043,12
2018/02/17,11:50,0.75,0.035,9.5
2018/02/17,12:00,0.76,0.032,11
2018/02/17,12:10,0.77,0.028,12
2018/02/17,12:20,0.77,0.028,13
2018/02/17,12:30,0.77,0.027,13
2018/02/17,12:40,0.76,0.036,14
2018/02/17,12:50,0.76,0.045,16
2018/02/17,13:00,0.78,0.037,16
2018/02/17,13:10,0.77,0.047,14
2018/02/17,13:20,0.78,0.039,15
2018/02/17,13:30,0.78,0.041,14
2018/02/17,13:40,0.80,0.032,14
2018/02/17,13:50,0.82,0.027,15
2018/02/17,14:00,0.81,0.029,15
2018/02/17,14:10,0.82,0.027,14
2018/02/17,14:20,0.83,0.027,13
2018/02/17,14:30,0.82,0.027,12
2018/02/17,14:40,0.82,0.026,12
2018/02/17,14:50,0.84,ND,11
2018/02/17,15:00,0.84,ND,11
2018/02/17,15:10,0.82,0.026,10
2018/02/17,15:20,0.81,0.032,9.3
2018/02/17,15:30,0.80,0.038,11
2018/02/17,15:40,0.81,0.046,8.9
2018/02/17,15:50,0.80,0.054,ND
2018/02/17,16:00,0.78,0.051,9.0
2018/02/17,16:10,0.77,0.046,ND
2018/02/17,16:20,0.76,0.041,10
2018/02/17,16:30,0.77,0.029,12
2018/02/17,16:40,0.79,ND,14
2018/02/17,16:50,0.79,ND,15
2018/02/17,17:00,0.81,ND,12
2018/02/17,17:10,0.80,ND,16
2018/02/17,17:20,0.78,ND,16
2018/02/17,17:30,0.74,0.030,12
2018/02/17,17:40,0.78,ND,11
2018/02/17,17:50,0.73,0.037,11
2018/02/17,18:00,0.74,0.032,12
2018/02/17,18:10,0.76,0.037,16
2018/02/17,18:20,0.77,0.035,15
2018/02/17,18:30,0.81,0.040,18
2018/02/17,18:40,0.82,0.040,17
2018/02/17,18:50,0.82,0.037,21
2018/02/17,19:00,0.80,0.027,20
2018/02/17,19:10,0.84,ND,16
2018/02/17,19:20,0.86,0.030,16
2018/02/17,19:30,0.87,0.028,14
2018/02/17,19:40,0.84,0.034,17
2018/02/17,19:50,0.85,0.038,15
2018/02/17,20:00,0.84,0.031,16
2018/02/17,20:10,0.85,0.037,15
2018/02/17,20:20,0.83,0.043,15
2018/02/17,20:30,0.83,0.044,17
2018/02/17,20:40,0.82,0.038,16
2018/02/17,20:50,0.82,0.038,12
2018/02/17,21:00,0.81,0.036,10
2018/02/17,21:10,0.81,0.035,12
2018/02/17,21:20,0.83,0.035,9.5
2018/02/17,21:30,0.83,0.038,ND
2018/02/17,21:40,0.84,0.035,ND
2018/02/17,21:50,0.84,0.043,9.5
2018/02/17,22:00,0.84,0.052,10
2018/02/17,22:10,0.85,0.045,9.2
2018/02/17,22:20,0.84,0.048,11
2018/02/17,22:30,0.84,0.050,11
2018/02/17,22:40,0.86,0.049,12
2018/02/17,22:50,0.85,0.046,ND
2018/02/17,23:00,0.86,0.041,11
2018/02/17,23:10,0.83,0.047,11
2018/02/17,23:20,0.83,0.048,12
2018/02/17,23:30,0.82,0.045,14
2018/02/17,23:40,0.83,0.033,13
2018/02/17,23:50,0.84,0.029,13
